Temp
85 82 80 80 79 74 74 70 69 67 66 67 64 64 63 61 66 67 67 67 66 65 66 66 65 66 66 68 69 69 68 67 62 66 70 70 67 63 61 59 60 57 56
85 83 80 80 75 70 68 68 67 65 65 66 62 64 65 67 66 67 67 67 65 64 65 64 63 66 63 64 67 63 66 65 64 61 65 68 63 60 59 58 56 56 54
85 84 81 77 73 68 67 65 64 64 63 62 65 65 67 67 65 67 68 67 65 64 64 63 62 61 60 61 63 63 64 65 66 64 64 67 62 59 56 56 51 52 55
84 84 81 72 65 63 64 64 64 63 63 65 66 68 67 67 69 69 67 65 65 65 63 61 61 59 58 58 62 60 60 61 63 62 62 60 58 56 53 49 47 51 50
83 82 65 71 69 63 62 63 63 63 64 66 65 67 69 69 70 66 65 65 63 63 64 63 59 58 55 54 60 58 58 58 59 59 58 55 52 49 45 46 45 48 50
81 70 66 66 62 62 63 61 61 62 62 62 64 62 56 60 51 55 63 64 63 62 61 62 61 56 58 55 54 53 51 55 53 55 54 48 47 45 46 45 45 45 43
79 70 68 68 64 58 58 59 59 57 54 53 54 52 54 53 49 51 55 61 59 58 58 58 60 59 54 59 58 57 52 52 55 56 50 47 45 45 44 44 46 45 45
72 63 63 64 61 57 55 52 51 51 49 48 51 51 51 51 48 49 52 57 55 55 56 58 56 54 49 51 60 61 61 61 59 57 51 49 48 47 46 47 48 49 51
65 63 60 59 56 54 51 50 49 48 46 47 48 49 50 49 46 48 56 59 57 55 54 52 54 52 42 43 57 57 58 58 55 53 49 47 45 45 47 52 51 48 46
63 62 61 60 56 53 50 49 48 49 49 50 51 51 50 52 43 44 56 63 59 60 59 54 43 47 42 43 56 56 55 56 56 57 52 50 49 49 50 53 54 51 50
62 62 59 58 54 52 49 48 48 47 49 50 50 52 54 52 48 43 44 65 65 63 61 58 56 43 42 43 44 55 52 48 54 55 50 49 48 49 51 55 53 54 52
58 57 55 52 51 49 46 46 49 47 48 49 51 53 54 52 48 44 44 47 55 58 57 58 56 43 43 44 51 43 44 54 58 52 48 46 45 46 50 55 54 52 57
53 51 50 50 49 47 46 46 47 48 50 53 54 54 54 55 54 45 46 47 48 57 60 49 46 47 45 50 44 45 49 54 52 48 45 44 45 47 51 55 58 58 60
51 49 49 48 47 48 48 51 53 54 55 58 59 58 59 59 60 60 60 57 49 58 54 60 55 51 49 54 56 54 53 51 50 48 45 46 49 51 56 56 54 53 56
50 49 49 49 49 46 46 53 52 52 59 59 58 59 55 51 48 44 52 58 58 50 58 63 62 60 58 54 53 51 49 49 49 47 46 46 48 53 54 58 56 57 55
47 46 44 44 43 49 45 44 39 41 40 41 43 50 49 42 40 41 42 42 42 43 60 60 58 55 51 48 46 45 46 45 45 45 44 45 46 51 53 55 56 53 56
47 46 43 43 44 47 46 44 42 41 40 39 38 38 39 39 40 40 42 46 45 53 60 59 55 50 48 46 43 42 41 42 43 43 43 45 45 49 55 56 57 58 58
49 46 46 45 51 50 54 54 54 52 49 48 42 44 39 40 41 41 44 47 60 58 60 59 55 50 47 46 45 44 47 51 54 53 52 51 49 50 51 54 56 57 59
52 53 54 55 55 58 61 57 55 52 51 51 52 50 49 44 45 46 48 61 59 59 60 60 59 54 53 54 56 57 56 55 53 56 56 58 59 57 55 57 59 50 52
52 48 52 53 56 57 57 56 54 55 54 56 57 58 60 59 59 59 60 60 60 60 60 60 60 58 59 60 59 58 56 56 54 57 58 60 59 59 58 59 59 59 60
52 53 50 58 58 57 58 58 58 58 59 57 56 51 37 59 58 58 59 59 59 59 60 60 61 61 61 60 60 58 58 57 55 56 58 60 61 58 60 61 60 60 60
52 54 57 58 58 58 58 58 58 58 57 56 57 55 40 60 59 58 59 59 60 60 61 61 61 60 60 59 57 56 55 56 55 56 58 60 61 61 60 60 60 60 59
56 57 59 60 58 52 60 61 60 59 59 59 60 60 60 59 58 58 58 59 59 59 60 59 58 58 59 58 57 56 53 54 57 58 58 58 59 60 60 59 59 58 59
58 57 58 59 61 62 61 61 61 55 61 61 59 59 59 59 58 58 59 59 59 59 59 58 56 55 54 55 56 56 52 47 57 60 60 58 58 58 60 59 59 59 58
63 63 62 62 62 61 61 61 61 61 60 60 59 59 59 59 59 59 59 59 58 58 57 57 57 55 53 52 53 52 39 35 47 39 61 59 57 58 58 58 58 58 58
63 64 63 63 63 62 61 61 60 60 59 60 60 60 60 59 59 59 59 59 58 58 57 56 55 54 53 51 48 38 35 35 43 36 59 58 57 56 58 57 57 57 56
MSLP
1000.22 1001.00 1001.55 1001.69 1002.16 1002.94 1003.64 1004.75 1005.99 1007.55 1009.00 1008.86 1009.38 1010.23 1012.79 1013.75 1014.16 1014.36 1014.90 1015.32 1015.23 1014.63 1014.80 1015.02 1015.27 1015.31 1015.17 1014.84 1014.50 1014.33 1013.88 1013.84 1013.32 1012.62 1012.13 1011.82 1011.84 1012.26 1012.52 1012.43 1011.90 1011.58 1011.10
1000.04 1000.53 1001.30 1001.52 1002.41 1002.96 1003.36 1005.14 1006.52 1008.13 1007.87 1008.40 1009.99 1011.16 1012.89 1014.06 1014.39 1014.64 1015.13 1015.81 1015.06 1014.72 1015.22 1015.49 1015.90 1015.82 1015.72 1015.39 1014.73 1014.74 1014.28 1014.47 1014.01 1013.08 1012.59 1011.95 1012.25 1012.92 1012.92 1012.53 1012.23 1011.70 1011.35
999.61 999.86 1000.86 1001.70 1002.73 1003.24 1000.36 1004.59 1006.85 1007.40 1008.25 1008.21 1011.37 1010.93 1012.80 1013.76 1014.17 1015.17 1015.73 1015.95 1015.35 1015.49 1015.92 1016.27 1016.59 1016.64 1016.43 1016.22 1015.34 1015.24 1015.09 1014.70 1014.01 1013.50 1012.68 1012.52 1013.02 1013.55 1013.05 1012.77 1012.64 1011.98 1011.47
999.49 999.66 1000.70 1002.29 1003.54 1004.21 1002.81 1003.47 1006.20 1007.44 1007.65 1010.32 1009.82 1012.13 1013.45 1013.55 1014.13 1015.14 1015.93 1015.96 1016.09 1016.41 1016.79 1017.06 1017.23 1017.34 1017.35 1016.81 1016.06 1016.14 1015.95 1015.27 1014.60 1014.08 1013.53 1013.68 1014.18 1014.45 1014.25 1013.55 1012.77 1012.12 1011.69
999.39 999.93 1002.39 1003.04 1003.80 1003.87 1005.20 1005.97 1006.00 1007.37 1008.18 1009.94 1010.51 1013.08 1013.59 1013.63 1014.27 1015.22 1015.81 1016.50 1016.51 1016.93 1017.29 1017.63 1017.99 1018.12 1017.75 1017.35 1017.00 1016.89 1016.65 1016.16 1015.51 1015.08 1014.86 1015.38 1015.14 1015.10 1014.84 1014.40 1013.69 1012.74 1012.03
999.80 1001.67 1003.06 1003.87 1004.63 1005.07 1005.88 1007.47 1007.18 1008.32 1009.57 1010.03 1012.38 1013.81 1014.48 1014.86 1015.44 1015.82 1016.23 1017.01 1016.64 1017.17 1017.76 1017.86 1018.13 1018.30 1017.88 1017.38 1017.21 1017.16 1017.41 1016.96 1016.75 1016.13 1016.29 1016.62 1016.94 1016.67 1015.95 1015.12 1014.00 1012.73 1012.32
1000.03 1002.26 1003.59 1004.46 1005.47 1006.24 1007.50 1008.56 1009.56 1009.94 1010.80 1012.50 1014.42 1014.76 1015.95 1016.52 1016.86 1017.06 1017.44 1017.14 1017.56 1018.46 1018.77 1018.60 1018.52 1018.88 1018.54 1017.86 1017.07 1016.83 1017.39 1017.25 1017.28 1017.13 1017.47 1017.73 1017.50 1017.14 1016.68 1015.51 1014.34 1013.75 1013.12
1001.35 1003.35 1004.49 1005.49 1006.74 1007.82 1008.34 1010.62 1010.92 1011.95 1013.18 1014.14 1015.60 1016.45 1016.97 1018.06 1018.17 1018.10 1017.96 1017.71 1018.59 1019.32 1019.24 1019.21 1019.58 1019.64 1019.46 1018.72 1017.57 1017.12 1016.88 1016.81 1016.94 1017.30 1018.08 1018.46 1018.09 1017.77 1017.32 1016.17 1014.82 1014.08 1013.48
1002.85 1004.08 1005.55 1006.21 1007.53 1008.43 1009.78 1010.80 1014.38 1013.72 1014.91 1015.61 1016.80 1017.54 1018.74 1019.31 1018.72 1018.52 1018.09 1017.86 1018.79 1019.82 1020.20 1020.67 1020.56 1020.57 1019.90 1018.95 1018.07 1017.83 1017.36 1017.39 1017.74 1017.95 1018.32 1018.16 1017.96 1017.77 1017.05 1016.31 1015.19 1014.26 1014.22
1003.41 1004.69 1006.20 1007.22 1008.24 1009.58 1010.14 1013.20 1015.22 1014.64 1015.77 1016.38 1018.01 1019.09 1019.64 1019.60 1019.02 1018.12 1017.85 1018.22 1018.78 1019.02 1019.87 1020.84 1021.83 1021.12 1020.22 1019.53 1018.89 1018.49 1018.09 1018.22 1018.13 1018.11 1018.42 1018.04 1017.98 1017.73 1017.11 1016.17 1015.76 1015.01 1014.73
1004.21 1005.26 1006.94 1008.36 1009.50 1010.54 1012.13 1013.42 1016.10 1016.23 1016.17 1017.29 1018.81 1019.63 1019.85 1019.42 1018.99 1018.58 1018.60 1018.23 1018.21 1018.98 1019.58 1020.64 1021.38 1020.79 1020.22 1019.88 1019.45 1019.33 1019.23 1019.23 1018.62 1018.90 1018.89 1018.63 1018.49 1018.36 1017.59 1016.43 1016.26 1015.91 1015.19
1005.18 1006.24 1007.81 1009.35 1011.09 1012.07 1012.11 1014.81 1017.34 1016.62 1017.20 1017.87 1018.72 1019.59 1019.65 1019.80 1020.01 1020.08 1019.87 1019.49 1019.77 1020.17 1020.39 1020.82 1020.75 1020.42 1020.28 1020.25 1020.24 1020.31 1019.56 1019.32 1019.23 1019.29 1019.51 1019.51 1019.49 1019.18 1018.16 1017.02 1016.19 1016.03 1015.51
1006.03 1007.53 1009.21 1010.87 1012.55 1013.10 1013.54 1015.56 1016.95 1016.85 1016.99 1017.19 1018.72 1018.97 1019.49 1020.08 1020.91 1020.90 1020.92 1020.93 1020.74 1020.33 1020.51 1020.76 1020.42 1020.20 1020.12 1020.44 1020.93 1020.89 1020.75 1020.53 1020.38 1020.48 1020.19 1019.65 1019.87 1019.54 1018.62 1017.65 1016.38 1016.00 1015.36
1006.96 1008.56 1010.04 1011.64 1012.96 1012.91 1015.60 1016.63 1016.13 1016.44 1016.50 1017.47 1018.42 1018.64 1019.16 1019.75 1020.72 1021.35 1021.04 1020.98 1020.39 1020.36 1020.38 1020.23 1020.09 1020.46 1020.30 1020.98 1021.39 1021.51 1021.49 1021.55 1021.71 1021.42 1020.90 1020.31 1019.47 1019.03 1018.21 1017.82 1016.87 1016.26 1015.73
1008.11 1009.43 1010.96 1011.97 1012.66 1015.21 1017.50 1016.24 1016.60 1017.28 1017.32 1018.01 1018.65 1019.34 1020.43 1021.96 1022.95 1022.30 1021.38 1021.17 1021.24 1021.20 1020.25 1020.51 1020.54 1020.51 1021.30 1022.17 1022.48 1022.58 1022.56 1022.47 1022.60 1022.37 1021.58 1020.93 1020.02 1019.37 1018.49 1017.96 1017.23 1016.58 1016.13
1008.88 1010.25 1012.10 1013.44 1013.44 1017.07 1017.22 1018.17 1019.15 1019.07 1019.44 1020.38 1020.40 1020.87 1022.06 1023.64 1023.18 1022.45 1021.97 1021.64 1021.71 1021.70 1021.21 1021.10 1021.51 1022.43 1023.11 1023.71 1023.82 1023.92 1023.76 1023.58 1023.22 1022.79 1022.09 1021.63 1020.96 1020.00 1019.01 1018.38 1017.80 1017.20 1016.40
1009.03 1011.20 1013.18 1014.24 1015.07 1016.84 1017.47 1018.33 1019.95 1021.58 1021.61 1022.81 1021.46 1022.86 1024.22 1023.24 1022.76 1022.07 1022.11 1022.00 1021.97 1022.01 1021.78 1021.98 1023.21 1024.12 1024.50 1025.19 1025.00 1025.21 1024.79 1024.09 1023.55 1023.09 1022.47 1021.76 1021.26 1020.68 1019.53 1018.67 1018.05 1017.43 1016.67
1010.29 1011.34 1013.24 1014.77 1015.49 1016.32 1017.24 1018.28 1019.74 1020.11 1021.43 1022.95 1024.14 1023.89 1023.21 1022.83 1022.38 1022.75 1022.52 1022.51 1022.50 1022.46 1022.46 1022.92 1023.96 1024.95 1025.53 1025.64 1025.61 1025.44 1024.69 1023.43 1022.53 1022.30 1022.00 1021.79 1021.37 1020.81 1020.00 1019.21 1018.61 1017.97 1017.26
1010.82 1012.23 1013.70 1014.52 1015.21 1016.06 1016.97 1018.78 1019.71 1021.00 1021.86 1022.12 1022.74 1022.91 1022.88 1022.68 1022.63 1022.67 1022.61 1022.95 1023.13 1023.40 1023.56 1023.73 1024.49 1025.17 1025.32 1024.95 1024.74 1024.54 1024.04 1023.46 1023.00 1022.44 1022.08 1021.45 1020.85 1020.38 1019.83 1019.47 1018.92 1018.36 1017.79
1011.91 1013.19 1013.91 1015.03 1016.03 1017.32 1018.95 1019.20 1019.19 1019.58 1020.10 1020.84 1021.63 1022.26 1022.84 1023.04 1023.27 1023.61 1023.87 1024.07 1024.21 1024.40 1024.55 1024.86 1024.87 1025.01 1024.76 1024.57 1024.75 1024.65 1024.41 1024.11 1023.55 1023.05 1022.51 1021.80 1021.28 1020.63 1020.14 1019.75 1019.40 1018.82 1018.44
1013.58 1014.62 1014.57 1015.48 1016.41 1017.31 1017.33 1017.53 1018.53 1019.41 1020.14 1021.44 1022.42 1023.15 1023.40 1023.65 1024.10 1024.53 1024.86 1025.25 1025.41 1025.40 1025.85 1025.59 1025.55 1025.48 1025.33 1025.35 1025.30 1025.41 1025.02 1024.66 1024.37 1023.86 1023.15 1022.32 1021.80 1021.31 1020.78 1020.46 1020.09 1019.66 1019.20
1014.24 1014.58 1015.21 1015.76 1016.54 1016.93 1017.38 1018.48 1019.45 1020.39 1021.57 1022.30 1023.23 1023.97 1024.13 1024.30 1024.86 1025.43 1025.90 1026.15 1026.35 1026.52 1026.49 1026.55 1026.40 1026.54 1026.67 1026.53 1026.52 1026.42 1026.17 1025.62 1025.09 1024.51 1023.91 1023.15 1022.36 1022.04 1021.68 1021.21 1020.74 1020.56 1020.20
1014.39 1015.08 1015.70 1016.15 1016.87 1017.76 1018.70 1019.33 1020.37 1021.35 1022.03 1022.84 1023.45 1024.04 1024.70 1025.29 1025.84 1026.50 1026.95 1027.19 1027.30 1027.51 1027.65 1027.88 1027.87 1028.35 1027.88 1027.80 1027.68 1027.65 1027.52 1026.90 1025.91 1025.17 1024.66 1024.04 1023.43 1022.79 1022.51 1022.20 1021.87 1021.54 1021.15
1015.95 1016.43 1016.38 1016.94 1017.82 1018.73 1019.43 1020.32 1021.17 1022.00 1022.69 1023.52 1024.22 1024.86 1025.50 1026.11 1026.93 1027.39 1027.69 1028.10 1028.20 1028.25 1028.41 1028.90 1029.41 1029.73 1029.45 1029.05 1028.85 1028.71 1028.77 1028.58 1027.08 1025.87 1025.34 1024.96 1024.41 1023.90 1023.48 1023.10 1022.82 1022.60 1022.32
1016.04 1016.48 1017.25 1018.11 1018.90 1019.61 1020.57 1021.17 1021.96 1022.81 1023.72 1024.48 1025.05 1025.57 1026.31 1027.11 1027.77 1028.03 1028.37 1028.88 1028.91 1029.17 1029.52 1029.75 1030.23 1030.56 1030.68 1030.58 1030.31 1029.97 1029.61 1028.93 1028.05 1027.30 1026.16 1025.90 1025.61 1025.01 1024.76 1024.38 1023.89 1023.69 1023.33
1016.86 1017.49 1018.60 1019.28 1019.52 1020.47 1021.21 1022.01 1022.94 1023.82 1024.51 1025.22 1025.80 1026.46 1027.11 1027.85 1028.28 1028.65 1029.05 1029.52 1029.64 1029.94 1030.33 1030.93 1031.37 1031.50 1031.53 1031.50 1031.42 1031.01 1030.36 1029.63 1028.84 1028.08 1027.19 1026.94 1026.64 1026.37 1025.93 1025.62 1025.23 1024.90 1024.62
Wind_Speed
11 10 12 14 15 14 14 14 16 16 16 16 17 17 11 9 9 8 8 7 8 9 8 8 8 8 6 7 7 8 7 9 10 10 10 9 10 14 15 14 15 13 12
14 11 12 12 9 12 16 16 17 18 15 19 17 17 13 12 10 8 7 7 8 11 10 9 9 7 8 8 7 8 8 9 9 11 9 9 12 15 15 15 13 11 10
14 11 10 8 10 11 17 18 18 18 19 20 14 17 14 12 11 8 8 8 11 11 10 10 9 10 9 8 8 9 9 8 9 10 10 10 11 13 15 13 12 12 8
13 9 8 8 10 7 16 23 20 20 22 17 19 15 14 13 14 11 9 10 10 10 10 10 10 10 10 11 9 10 10 10 9 10 10 11 12 14 11 12 11 10 7
10 5 9 9 13 14 16 4 19 19 19 16 19 14 13 13 11 13 11 10 11 10 9 10 11 10 5 6 8 8 10 10 10 10 11 11 12 13 13 10 10 9 7
10 17 13 16 14 11 19 13 16 18 18 19 15 14 12 10 14 11 12 9 12 11 8 9 10 14 11 4 5 5 5 11 12 11 11 11 13 11 10 10 9 9 6
4 20 14 18 21 20 15 15 12 17 19 18 15 15 12 11 12 10 11 12 12 11 10 9 10 10 13 11 8 5 8 2 9 11 11 9 9 11 11 12 13 11 5
12 15 15 17 18 19 21 16 17 16 17 16 14 13 13 8 12 12 13 15 13 11 11 12 11 13 13 12 11 11 11 10 13 9 9 8 8 10 11 10 11 11 4
15 18 18 21 20 20 21 21 7 17 17 13 14 13 10 7 8 6 12 13 13 12 14 13 13 12 14 18 13 12 12 11 9 4 7 8 11 12 13 9 12 12 10
17 20 21 20 21 21 23 20 7 15 16 14 13 11 10 10 11 12 7 9 10 10 11 13 11 9 9 13 13 12 12 12 9 11 10 10 10 11 10 12 10 11 9
17 21 20 21 23 22 23 20 8 14 16 16 13 11 12 12 13 15 14 8 9 9 9 9 8 7 9 12 14 12 12 10 4 9 8 8 8 9 9 10 8 8 10
16 20 20 21 16 18 25 20 10 16 16 15 13 11 12 13 12 14 15 15 13 11 10 9 8 5 7 10 12 15 14 11 9 9 8 8 8 8 10 10 9 5 4
21 22 21 20 17 20 20 19 12 12 11 13 10 12 12 12 12 12 12 11 9 12 9 4 2 9 7 3 8 11 13 10 10 9 8 8 6 6 9 10 10 10 4
23 23 22 21 20 19 12 9 11 9 10 12 11 11 11 10 9 9 8 7 6 8 5 7 4 4 3 11 13 11 10 10 9 8 7 6 7 5 7 6 5 5 7
22 20 22 18 20 13 9 7 10 12 10 10 11 12 12 10 6 10 11 10 8 7 6 10 11 13 13 12 10 12 10 10 10 9 8 8 9 9 8 7 7 6 8
23 18 17 15 16 12 14 17 28 29 31 26 22 17 14 10 6 8 12 12 9 9 10 11 14 13 12 12 11 10 10 11 8 7 7 7 8 9 9 7 8 5 7
24 22 17 17 14 13 14 16 17 19 27 21 24 21 11 9 8 14 14 14 16 8 12 13 14 12 11 10 8 8 8 6 7 5 5 5 4 7 9 7 8 8 8
23 31 17 15 15 15 16 17 15 16 15 14 10 10 10 9 11 8 7 5 12 12 12 12 13 11 9 9 6 5 4 4 5 4 3 3 4 4 6 8 8 9 9
21 17 16 15 14 16 16 16 16 15 14 15 14 14 13 13 13 14 10 12 12 12 11 11 12 9 8 7 6 8 10 9 8 9 9 8 8 7 7 7 9 9 9
19 26 21 16 15 16 15 15 15 13 13 12 13 12 10 12 13 13 12 12 11 11 11 10 9 8 8 10 10 10 9 10 9 10 9 9 8 8 8 10 9 9 9
16 14 22 16 15 13 14 15 14 12 14 14 13 12 9 13 13 12 11 11 11 11 10 10 10 10 11 11 11 11 11 10 10 10 10 10 9 9 9 9 10 10 12
14 15 15 15 14 14 15 14 14 15 15 15 14 11 8 13 12 11 11 11 11 11 10 10 10 11 11 12 12 11 11 11 10 9 10 10 10 9 9 10 10 9 12
13 16 14 15 15 16 15 15 15 15 16 15 13 13 13 12 12 11 11 10 11 11 12 12 12 11 11 12 12 12 11 11 11 9 10 9 10 10 9 10 11 11 11
14 16 16 15 14 15 15 15 15 16 15 14 13 13 13 12 12 12 11 10 10 11 11 12 12 15 13 12 12 12 11 10 10 10 13 11 10 11 11 11 12 14 12
14 16 16 15 15 15 15 16 16 15 14 13 13 13 13 11 11 11 11 10 11 12 13 12 11 14 16 18 17 18 16 15 14 13 11 13 15 15 13 12 12 12 14
15 16 15 14 14 14 14 15 15 14 14 13 13 12 12 11 11 11 10 11 11 11 13 11 13 17 17 14 17 14 14 15 14 14 11 13 13 12 11 13 17 12 13
Wind_Direction
238 212 226 226 218 206 174 152 135 135 139 123 104 102 105 111 116 106 104 114 108 87 73 61 45 39 6 9 339 9 348 354 330 336 332 339 16 20 13 352 356 357 350
241 215 223 224 213 189 154 145 138 143 125 123 119 123 122 126 130 115 106 117 94 78 65 57 41 30 9 23 353 10 11 339 323 337 336 355 35 16 4 352 1 347 347
243 208 228 196 197 194 139 132 143 134 124 113 127 121 129 126 109 115 115 101 81 76 69 61 49 31 30 10 16 5 10 336 347 335 341 12 18 13 352 356 353 343 359
252 205 229 129 77 42 142 138 139 131 123 130 118 122 131 128 123 115 111 90 86 82 76 61 53 47 30 18 23 6 9 345 356 353 3 8 6 3 352 347 345 345 354
254 216 92 121 150 120 57 95 124 126 115 127 111 128 127 122 117 120 108 106 97 85 71 90 55 34 63 40 20 17 11 8 7 356 12 5 358 351 350 338 338 331 343
215 102 123 109 90 115 135 138 127 120 117 103 111 99 84 78 71 85 107 108 88 73 65 60 69 38 11 221 244 238 20 32 14 6 9 10 356 349 339 335 332 349 13
226 123 127 129 111 90 80 95 106 100 97 97 92 89 90 81 66 77 99 91 81 75 62 46 46 36 20 0 25 77 158 166 27 25 17 23 352 351 331 330 347 352 13
113 121 127 124 113 111 106 80 79 95 88 91 98 100 92 71 82 82 97 94 87 73 58 57 51 36 13 353 28 28 39 18 45 38 52 22 12 353 336 323 348 350 33
136 120 125 123 119 108 102 101 145 103 93 90 93 97 99 92 83 126 110 100 98 91 72 50 51 41 7 353 37 28 35 25 83 60 112 47 10 353 338 5 21 26 24
135 131 128 123 118 117 111 93 120 100 121 104 100 98 112 105 48 35 77 105 115 106 107 91 58 34 0 13 35 26 25 19 1 33 36 18 7 351 359 16 16 20 15
134 126 126 120 118 113 107 108 128 115 106 101 95 96 91 83 55 39 15 96 92 80 72 70 53 21 9 16 8 20 339 328 33 34 31 15 8 357 346 7 354 353 25
126 117 114 117 120 117 112 112 141 114 115 118 115 108 88 82 68 55 51 50 66 77 74 61 54 1 39 6 21 346 1 27 34 33 23 13 5 351 349 346 334 332 33
116 111 112 113 119 117 116 118 132 120 123 111 114 109 107 99 90 83 83 82 78 85 79 101 344 327 315 103 265 13 29 25 28 24 11 9 360 340 337 359 356 344 54
116 114 113 112 112 99 105 144 127 131 115 123 125 116 110 98 104 132 124 120 125 81 142 67 41 274 325 50 42 37 36 32 21 19 2 355 3 353 22 355 340 357 24
113 114 113 105 106 91 72 82 79 53 92 111 110 106 103 96 77 52 62 68 53 25 39 54 52 48 46 38 34 34 30 25 20 9 4 1 14 14 1 354 4 12 36
117 108 107 104 97 104 97 86 59 69 67 64 75 93 83 103 122 85 60 51 37 5 68 59 55 48 43 37 31 26 27 19 8 359 360 360 7 15 358 9 10 357 14
118 115 110 108 112 116 101 101 101 76 77 77 76 74 85 99 77 57 41 55 39 74 64 64 62 47 45 39 31 20 13 353 340 340 344 347 343 22 12 18 15 13 28
116 114 110 128 122 118 118 114 115 105 104 98 87 107 94 92 78 71 45 76 74 63 62 67 71 59 51 44 31 12 356 336 14 3 347 307 335 10 354 10 9 7 32
117 118 121 116 120 115 111 110 110 109 115 112 109 91 83 71 61 58 75 71 69 65 61 61 73 62 49 56 42 28 36 31 15 12 8 7 27 32 29 28 14 16 14
106 111 113 114 116 110 127 126 116 114 107 108 103 106 109 90 79 73 69 67 65 62 64 60 55 68 50 43 42 39 31 33 18 9 13 15 30 20 30 31 20 24 41
113 114 112 113 114 122 113 106 103 105 92 88 84 65 55 87 84 77 73 67 65 62 56 54 52 42 39 36 35 30 27 31 23 10 3 10 42 25 23 44 34 20 10
113 112 110 109 111 106 98 95 98 100 104 103 97 87 77 88 85 82 77 72 69 62 55 51 48 47 39 38 32 30 21 22 20 9 8 18 19 42 30 25 32 45 24
102 108 110 103 99 102 107 107 107 109 109 110 109 99 93 91 88 85 84 80 74 68 61 50 49 38 41 37 38 33 26 7 2 14 19 17 25 23 36 36 29 33 30
109 113 113 109 109 112 111 111 109 104 107 105 101 98 95 90 91 92 88 83 79 72 70 69 60 50 37 39 35 36 26 7 355 2 34 19 33 24 28 35 38 32 41
119 107 106 116 112 107 115 114 111 107 107 108 107 102 98 100 99 96 92 88 83 79 69 61 57 54 47 43 36 23 7 354 357 341 39 39 24 35 31 30 30 34 31
118 113 114 121 115 115 113 111 110 111 111 109 106 105 109 108 105 99 95 91 87 80 75 66 59 56 48 39 22 7 359 357 357 344 44 40 39 29 37 34 37 33 32